This demonstration page uses our WeatherBlox Daily Observations layout. Learn more.

Left ArrowRight Arrow

36.17497, -115.13722

Hourly Observations for January 1, 2022

Temp ( °F °C ) Dew Point ( °F °C ) Humidity (%) Winds ( mph kmh ) Pressure ( in mb ) Visibility ( mi km ) Precip ( " mm )
12:53 am 00:53 Clear 44 6.7 11 -11.7 26 26 NW 21 33 29.89 1012 10 16 0.00 0.00
1:53 am 01:53 Clear 43 6.1 12 -11.1 28 28 NW 14 22 29.93 1013 10 16 0.00 0.00
2:53 am 02:53 Clear 42 5.6 12 -11.1 29 29 NW 21 33 29.96 1015 10 16 0.00 0.00
3:53 am 03:53 Clear 41 5 11 -11.7 29 29 NW 18 30 29.99 1016 10 16 0.00 0.00
4:53 am 04:53 Clear 39 3.9 11 -11.7 31 31 NNW 10 17 30.05 1018 10 16 0.00 0.00
5:53 am 05:53 Clear 39 3.9 11 -11.7 31 31 NW 16 26 30.09 1019 10 16 0.00 0.00
6:53 am 06:53 Sunny 39 3.9 10 -12.2 30 30 NNW 9 15 30.16 1021 10 16 0.00 0.00
7:53 am 07:53 Sunny 40 4.4 8 -13.3 27 27 NNW 18 30 30.19 1023 10 16 0.00 0.00
8:53 am 08:53 Sunny 42 5.6 8 -13.3 24 24 NW 21 33 30.23 1024 10 16 0.00 0.00
9:53 am 09:53 Sunny 44 6.7 7 -13.9 22 22 NNW 21 33 30.27 1025 10 16 0.00 0.00
10:53 am 10:53 Sunny 46 7.8 6 -14.4 19 19 NW 22 35 30.27 1025 10 16 0.00 0.00
11:53 am 11:53 Sunny 47 8.3 6 -14.4 19 19 NNW 20 31 30.29 1026 10 16 0.00 0.00
12:53 pm 12:53 Sunny 48 8.9 6 -14.4 18 18 NW 13 20 30.28 1025 10 16 0.00 0.00
1:53 pm 13:53 Sunny 48 8.9 6 -14.4 18 18 N 7 11 30.29 1026 10 16 0.00 0.00
2:53 pm 14:53 Sunny 48 8.9 6 -14.4 18 18 NW 8 13 30.31 1027 10 16 0.00 0.00
3:53 pm 15:53 Sunny 48 8.9 6 -14.4 18 18 NW 8 13 30.32 1027 10 16 0.00 0.00
4:53 pm 16:53 Clear 45 7.2 6 -14.4 20 20 NE 6 9 30.36 1028 10 16 0.00 0.00
5:53 pm 17:53 Clear 43 6.1 4 -15.6 20 20 ENE 12 19 30.39 1029 10 16 0.00 0.00
6:53 pm 18:53 Clear 40 4.4 11 -11.7 30 30 ENE 12 19 30.41 1030 10 16 0.00 0.00
7:53 pm 19:53 Clear 39 3.9 11 -11.7 31 31 Calm 30.43 1031 10 16 0.00 0.00
8:53 pm 20:53 Clear 37 2.8 11 -11.7 34 34 ESE 5 7 30.45 1031 10 16 0.00 0.00
9:53 pm 21:53 Clear 37 2.8 11 -11.7 34 34 Calm 30.48 1032 10 16 0.00 0.00
10:53 pm 22:53 Clear 36 2.2 12 -11.1 37 37 S 8 13 30.48 1032 10 16 0.00 0.00
11:53 pm 23:53 Clear 34 1.1 11 -11.7 38 38 SE 9 15 30.49 1032 10 16 0.00 0.00

Powered by AerisWeather